Location: Quedlinburg
(51.7921°N, 11.1414°E)
Time: 21:27:52
(UTC+02:00)

CUBESAT XI-V - Pass Details

Date: 23 March 2026
Orbit: 643 x 664 km, 98.3° (Epoch: 14 April)

Event Time Altitude Azimuth Distance (km) Brightness Sun altitude
Exits shadow 02:07:09 25° 67° (ENE) 1,320 ? -32.8°
Maximum altitude 02:07:25 25° 61° (ENE) 1,314 ? -32.8°
Drops below altitude 10° 02:11:04 10° 6° (N) 2,061 ? -32.5°
Sets 02:13:35 0° 354° (N) 2,973 ? -32.2°
